Location: Sternwarte_Laufen
(47.9344°N, 12.9346°E)
Time: 15:31:53
(UTC+02:00)

ISS - Pass Details

Date: 13 May 2026
Orbit: 414 x 424 km, 51.6° (Epoch: 21 May)

Event Time Altitude Azimuth Distance (km) Brightness Sun altitude
Rises 23:20:22 0° 284° (WNW) 2,353 0.6 -19.5°
Reaches altitude 10° 23:22:31 10° 291° (WNW) 1,490 -0.3 -19.7°
Maximum altitude 23:25:44 43° 5° (N) 596 -2.6 -19.9°
Enters shadow 23:27:25 23° 65° (ENE) 933 -2.0 -20.0°
